When you browse on this site, cookies collect data to enhance your experience and personalize the content and advertising you see.
Visit our Privacy Policy to learn more. By continuing to use the site, you agree to this use of cookies and data.
  • In Hungary
  • List of Countries
  • For 7 days
  • Water Temperature
  • Satellite Maps
  • Weather Map
  • News
  • Weather Widgets
  • user-avatar
    Login

    Hourly Weather Sozopol

    Today, 17 January, Thursday

    Time Temperature Precipitation Wind Pressure Humidity
    00:00 +1°C° 0 mm 4 mps 759 mmHg 68%
    01:00 +1°C° 0 mm 4 mps 760 mmHg 69%
    02:00 +2°C° 0 mm 3 mps 760 mmHg 69%
    03:00 +1°C° 0 mm 3 mps 760 mmHg 70%
    04:00 +2°C° 0 mm 2 mps 760 mmHg 71%
    05:00 +2°C° 0 mm 2 mps 760 mmHg 71%
    06:00 +2°C° 0 mm 2 mps 760 mmHg 72%
    07:00 +2°C° 0 mm 2 mps 761 mmHg 72%
    08:00 +2°C° 0 mm 2 mps 761 mmHg 72%
    09:00 +4°C° 0 mm 2 mps 761 mmHg 66%
    10:00 +6°C° 0 mm 2 mps 761 mmHg 60%
    11:00 +8°C° 0 mm 2 mps 761 mmHg 54%
    12:00 +9°C° 0 mm 3 mps 761 mmHg 53%
    13:00 +9°C° 0 mm 3 mps 760 mmHg 52%
    14:00 +10°C° 0 mm 3 mps 760 mmHg 51%
    15:00 +9°C° 0 mm 3 mps 760 mmHg 58%
    16:00 +8°C° 0 mm 3 mps 760 mmHg 64%
    17:00 +7°C° 0 mm 3 mps 760 mmHg 70%
    18:00 +5°C° 0 mm 3 mps 760 mmHg 74%
    19:00 +5°C° 0 mm 3 mps 760 mmHg 78%
    20:00 +5°C° 0 mm 3 mps 760 mmHg 81%
    21:00 +5°C° 0 mm 3 mps 760 mmHg 83%
    22:00 +5°C° 0 mm 3 mps 760 mmHg 84%
    23:00 +5°C° 0 mm 3 mps 760 mmHg 85%

    Tomorrow, 18 January, Friday

    Time Temperature Precipitation Wind Pressure Humidity
    00:00 +4°C° 0 mm 3 mps 759 mmHg 85%
    01:00 +4°C° 0 mm 3 mps 759 mmHg 84%
    02:00 +4°C° 0 mm 3 mps 759 mmHg 83%
    03:00 +4°C° 0 mm 3 mps 759 mmHg 85%
    04:00 +4°C° 0 mm 3 mps 759 mmHg 86%
    05:00 +4°C° 0 mm 3 mps 758 mmHg 88%
    06:00 +4°C° 0 mm 3 mps 758 mmHg 88%
    07:00 +4°C° 0 mm 3 mps 759 mmHg 88%
    08:00 +4°C° 0 mm 3 mps 759 mmHg 88%
    09:00 +7°C° 0 mm 3 mps 759 mmHg 83%
    10:00 +8°C° 0 mm 4 mps 759 mmHg 77%
    11:00 +11°C° 0 mm 4 mps 759 mmHg 71%
    12:00 +10°C° 0 mm 5 mps 758 mmHg 69%
    13:00 +12°C° 0 mm 5 mps 758 mmHg 67%
    14:00 +12°C° 0 mm 5 mps 757 mmHg 65%
    15:00 +12°C° 0 mm 5 mps 757 mmHg 69%
    16:00 +11°C° 0 mm 4 mps 757 mmHg 74%
    17:00 +10°C° 0 mm 4 mps 757 mmHg 78%
    18:00 +10°C° 0 mm 4 mps 758 mmHg 80%
    19:00 +8°C° 0 mm 4 mps 758 mmHg 82%
    20:00 +8°C° 0 mm 4 mps 758 mmHg 84%
    21:00 +8°C° 0 mm 4 mps 758 mmHg 85%
    22:00 +8°C° 0 mm 4 mps 758 mmHg 86%
    23:00 +7°C° 0 mm 4 mps 759 mmHg 87%

    Day after tomorrow, 19 January, Saturday

    Time Temperature Precipitation Wind Pressure Humidity
    00:00 +8°C° 0 mm 3 mps 759 mmHg 87%
    01:00 +8°C° 0 mm 3 mps 759 mmHg 86%
    02:00 +8°C° 0 mm 3 mps 759 mmHg 86%
    03:00 +8°C° 0 mm 3 mps 759 mmHg 86%
    04:00 +7°C° 0 mm 3 mps 759 mmHg 86%
    05:00 +7°C° 0 mm 2 mps 759 mmHg 85%
    06:00 +7°C° 0 mm 2 mps 760 mmHg 84%
    07:00 +7°C° 0 mm 2 mps 761 mmHg 82%
    08:00 +6°C° 0 mm 2 mps 761 mmHg 81%
    09:00 +7°C° 0 mm 3 mps 762 mmHg 76%
    10:00 +7°C° 0 mm 3 mps 762 mmHg 71%
    11:00 +7°C° 0 mm 4 mps 762 mmHg 66%
    12:00 +7°C° 0 mm 4 mps 762 mmHg 67%
    13:00 +6°C° 0 mm 4 mps 762 mmHg 69%
    14:00 +6°C° 0 mm 4 mps 762 mmHg 71%
    15:00 +6°C° 0.1 mm 5 mps 762 mmHg 76%
    16:00 +5°C° 0.1 mm 5 mps 762 mmHg 81%
    17:00 +3°C° 0.1 mm 5 mps 762 mmHg 86%
    18:00 +3°C° 0.4 mm 5 mps 762 mmHg 87%
    19:00 +3°C° 0.4 mm 5 mps 762 mmHg 88%
    20:00 +5°C° 0.4 mm 5 mps 762 mmHg 89%
    21:00 +5°C° 0.2 mm 5 mps 762 mmHg 90%
    22:00 +5°C° 0.2 mm 5 mps 762 mmHg 90%
    23:00 +5°C° 0.2 mm 5 mps 762 mmHg 91%

    20 January, Sunday

    Time Temperature Precipitation Wind Pressure Humidity
    00:00 +5°C° 0.2 mm 5 mps 762 mmHg 92%
    01:00 +5°C° 0.2 mm 5 mps 762 mmHg 93%
    02:00 +5°C° 0.2 mm 4 mps 761 mmHg 94%
    03:00 +5°C° 0.5 mm 4 mps 761 mmHg 95%
    04:00 +6°C° 0.5 mm 5 mps 761 mmHg 95%
    05:00 +6°C° 0.5 mm 5 mps 760 mmHg 96%
    06:00 +6°C° 0.1 mm 5 mps 760 mmHg 96%
    07:00 +6°C° 0.1 mm 5 mps 760 mmHg 96%
    08:00 +6°C° 0.1 mm 4 mps 760 mmHg 96%
    09:00 +7°C° 0.1 mm 4 mps 760 mmHg 93%
    10:00 +7°C° 0.1 mm 4 mps 760 mmHg 91%
    11:00 +9°C° 0.1 mm 3 mps 760 mmHg 88%
    12:00 +10°C° 0 mm 3 mps 759 mmHg 85%
    13:00 +11°C° 0 mm 3 mps 759 mmHg 81%
    14:00 +12°C° 0 mm 2 mps 758 mmHg 77%
    15:00 +12°C° 0 mm 2 mps 758 mmHg 80%
    16:00 +10°C° 0 mm 2 mps 758 mmHg 83%
    17:00 +10°C° 0 mm 2 mps 757 mmHg 85%
    18:00 +10°C° 0.2 mm 2 mps 757 mmHg 87%
    19:00 +10°C° 0.2 mm 3 mps 758 mmHg 88%
    20:00 +9°C° 0.2 mm 3 mps 758 mmHg 90%
    21:00 +9°C° 0.2 mm 3 mps 758 mmHg 90%
    22:00 +9°C° 0.2 mm 3 mps 758 mmHg 90%
    23:00 +9°C° 0.2 mm 2 mps 758 mmHg 90%

    21 January, Monday

    Time Temperature Precipitation Wind Pressure Humidity
    00:00 +9°C° 0.1 mm 2 mps 758 mmHg 90%
    01:00 +9°C° 0.1 mm 2 mps 758 mmHg 91%
    02:00 +8°C° 0.1 mm 2 mps 758 mmHg 92%
    03:00 +8°C° 0.1 mm 3 mps 758 mmHg 91%
    04:00 +8°C° 0.1 mm 3 mps 758 mmHg 90%
    05:00 +7°C° 0.1 mm 3 mps 758 mmHg 89%
    06:00 +7°C° 0 mm 3 mps 758 mmHg 88%
    07:00 +7°C° 0 mm 3 mps 759 mmHg 86%
    08:00 +6°C° 0 mm 2 mps 759 mmHg 84%
    09:00 +7°C° 0 mm 2 mps 759 mmHg 80%
    10:00 +7°C° 0 mm 2 mps 760 mmHg 76%
    11:00 +7°C° 0 mm 2 mps 760 mmHg 73%
    12:00 +8°C° 0 mm 2 mps 760 mmHg 71%
    13:00 +8°C° 0 mm 2 mps 760 mmHg 69%
    14:00 +8°C° 0 mm 2 mps 760 mmHg 67%
    15:00 +8°C° 0 mm 2 mps 760 mmHg 69%
    16:00 +8°C° 0 mm 2 mps 761 mmHg 71%
    17:00 +7°C° 0 mm 3 mps 761 mmHg 73%
    18:00 +7°C° 0 mm 3 mps 761 mmHg 75%
    19:00 +7°C° 0 mm 3 mps 762 mmHg 77%
    20:00 +5°C° 0 mm 4 mps 762 mmHg 79%
    21:00 +5°C° 0 mm 4 mps 762 mmHg 82%
    22:00 +5°C° 0 mm 4 mps 762 mmHg 84%
    23:00 +4°C° 0 mm 4 mps 762 mmHg 86%

    22 January, Tuesday

    Time Temperature Precipitation Wind Pressure Humidity
    00:00 +4°C° 0 mm 4 mps 762 mmHg 86%
    01:00 +4°C° 0 mm 4 mps 762 mmHg 86%
    02:00 +4°C° 0 mm 4 mps 762 mmHg 86%
    03:00 +4°C° 0 mm 4 mps 762 mmHg 86%
    04:00 +4°C° 0 mm 4 mps 762 mmHg 86%
    05:00 +4°C° 0 mm 4 mps 762 mmHg 85%
    06:00 +3°C° 0 mm 5 mps 762 mmHg 85%
    07:00 +3°C° 0 mm 5 mps 762 mmHg 85%
    08:00 +3°C° 0 mm 5 mps 762 mmHg 85%
    09:00 +3°C° 0 mm 5 mps 761 mmHg 85%
    10:00 +4°C° 0 mm 6 mps 761 mmHg 84%
    11:00 +4°C° 0 mm 6 mps 761 mmHg 84%
    12:00 +5°C° 0 mm 6 mps 760 mmHg 85%
    13:00 +5°C° 0 mm 7 mps 759 mmHg 86%
    14:00 +5°C° 0 mm 7 mps 759 mmHg 87%
    15:00 +5°C° 0 mm 7 mps 758 mmHg 88%
    16:00 +5°C° 0 mm 7 mps 757 mmHg 90%
    17:00 +5°C° 0 mm 7 mps 757 mmHg 91%
    18:00 +5°C° 0 mm 7 mps 756 mmHg 91%
    19:00 +5°C° 0 mm 7 mps 756 mmHg 91%
    20:00 +5°C° 0 mm 7 mps 755 mmHg 92%
    21:00 +7°C° 0 mm 6 mps 755 mmHg 91%
    22:00 +7°C° 0 mm 6 mps 754 mmHg 90%
    23:00 +7°C° 0 mm 6 mps 754 mmHg 90%
    Show more